"2010-09-10 00:00:00",147181,5.606,217.9,1.56,0.157,22.9,110.5028,26.19,27.03,13.44,0,111.2,13.11,27.03,179.9
"2010-09-10 00:00:30",147182,6.192,218.4,2.517,0.587,22.92,110.5028,26.19,27.03,13.43,0,111.2,13.11,27.03,180.4
"2010-09-10 00:01:00",147183,6.911,210.2,3.49,0.315,23,110.5028,26.19,27.03,13.25,0,111.2,13.11,27.03,172.2
"2010-09-10 00:01:30",147184,6.828,208,1.383,0.244,22.99,110.5028,26.19,27.03,13.34,0,111.2,13.11,27.03,170.0
"2010-09-10 00:02:00",147185,6.797,214.3,4.769,0.355,22.97,110.5031,26.19,27.04,13.33,0,111.2,13.11,27.03,176.3
"2010-09-10 00:02:30",147186,7.099,215,3.76,0.273,22.98,110.5028,26.19,27.04,13.29,0,111.2,13.11,27.03,177.0
"2010-09-10 00:03:00",147187,6.315,211.2,1.884,0.186,22.88,110.5034,26.19,27.03,13.33,0,111.2,13.11,27.03,173.2
"2010-09-10 00:03:30",147188,5.955,210.6,2.422,0.244,22.75,110.5038,26.19,27.02,13.34,0,111.2,13.11,27.03,172.6
"2010-09-10 00:04:00",147189,5.794,213.5,2.672,0.296,22.72,110.5034,26.19,27.02,13.34,0,111.2,13.11,27.03,175.5
"2010-09-10 00:04:30",147190,5.84,206.8,3.485,0.461,22.78,110.5041,26.19,27.03,13.44,0,111.2,13.11,27.03,168.8
"2010-09-10 00:05:00",147191,6.666,201.2,2.529,0.338,22.9,110.5047,26.19,27.02,13.29,0,111.2,13.11,27.03,163.2
"2010-09-10 00:05:30",147192,7.134,207.3,2.755,0.468,22.86,110.5077,26.2,27.04,13.16,0,111.2,13.11,27.04,169.3
"2010-09-10 00:06:00",147193,7.111,203.5,2.813,0.264,22.86,110.5287,26.25,27.05,13.24,0,111.2,13.11,27.10,165.5
"2010-09-10 00:06:30",147194,6.972,205.7,3.147,0.162,22.89,110.5355,26.27,27.08,13.29,0,111.2,13.11,27.11,167.7
"2010-09-10 00:07:00",147195,6.843,206,1.867,0.238,22.93,110.5322,26.26,27.06,13.28,0,111.2,13.11,27.11,168.0
"2010-09-10 00:07:30",147196,6.68,206.4,1.624,0.234,22.95,110.5273,26.25,27.07,13.29,0,111.2,13.11,27.09,168.4
"2010-09-10 00:08:00",147197,7.002,198.6,5.993,0.375,23.02,110.5182,26.23,27.08,13.29,0,111.2,13.11,27.07,160.6
"2010-09-10 00:08:30",147198,7.142,201.9,4.721,0.296,22.96,110.5148,26.22,27.07,13.32,0,111.2,13.11,27.06,163.9
"2010-09-10 00:09:00",147199,6.773,201.5,4.46,0.365,22.96,110.5148,26.22,27.06,13.3,0,111.2,13.11,27.06,163.5
"2010-09-10 00:09:30",147200,6.495,203.7,3.641,0.28,22.94,110.5101,26.21,27.08,13.31,0,111.2,13.11,27.05,165.7
"2010-09-10 00:10:00",147201,7.121,205.3,2.122,0.164,22.97,110.5059,26.19,27.06,13.33,0,111.2,13.11,27.04,167.3
"2010-09-10 00:10:30",147202,6.301,198,3.712,0.421,22.92,110.5078,26.2,27.06,13.45,0,111.2,13.11,27.04,160.0
"2010-09-10 00:11:00",147203,6.113,196.4,2.51,0.265,22.94,110.5084,26.2,27.06,13.41,0,111.2,13.11,27.04,158.4
"2010-09-10 00:11:30",147204,6.587,197.4,2.788,0.249,23,110.5093,26.2,27.05,13.42,0,111.2,13.11,27.05,159.4
"2010-09-10 00:12:00",147205,6.223,210.8,6.205,0.537,23.03,110.509,26.2,27.04,13.32,0,111.2,13.11,27.05,172.8
"2010-09-10 00:12:30",147206,5.893,212.6,4.733,0.312,22.99,110.509,26.2,27.06,13.31,0,111.2,13.11,27.05,174.6
"2010-09-10 00:13:00",147207,5.111,203,5.868,0.501,22.92,110.509,26.2,27.05,13.49,0,111.2,13.11,27.05,165.0
"2010-09-10 00:13:30",147208,5.127,204.1,4.89,0.365,22.81,110.5112,26.21,27.04,13.52,0,111.2,13.11,27.05,166.1
"2010-09-10 00:14:00",147209,5.864,211.1,1.9,0.132,22.77,110.5103,26.21,27.04,13.49,0,111.2,13.11,27.05,173.1
"2010-09-10 00:14:30",147210,5.708,209.2,2.059,0.228,22.66,110.5062,26.2,27.04,13.58,0,111.2,13.11,27.04,171.2
"2010-09-10 00:15:00",147211,5.278,212,1.969,0.342,22.6,110.4868,26.15,27.03,13.62,0,111.2,13.11,26.99,174.0
"2010-09-10 00:15:30",147212,4.996,216.1,3.739,0.215,22.58,110.4809,26.13,27.01,13.64,0,111.2,13.11,26.97,178.1
"2010-09-10 00:16:00",147213,5.237,219.5,3.966,0.335,22.46,110.4784,26.12,27.01,13.63,0,111.2,13.11,26.97,181.5
"2010-09-10 00:16:30",147214,5.198,224.3,2.592,0.096,22.51,110.4787,26.12,26.99,13.51,0,111.2,13.11,26.97,186.3
"2010-09-10 00:17:00",147215,4.719,229.3,4.288,0.356,22.53,110.4846,26.14,27.01,13.44,0,111.2,13.11,26.98,191.3
"2010-09-10 00:17:30",147216,4.1,220.4,1.713,0.145,22.4,110.488,26.15,27,13.56,0,111.2,13.11,26.99,182.4
"2010-09-10 00:18:00",147217,3.982,224,3.071,0.116,22.37,110.4812,26.13,27,13.67,0,111.2,13.11,26.97,186.0
"2010-09-10 00:18:30",147218,3.834,227.9,3.786,0.333,22.33,110.4781,26.12,26.97,13.67,0,111.2,13.11,26.97,189.9
"2010-09-10 00:19:00",147219,4.201,233.1,4.047,0.61,22.34,110.4778,26.12,26.98,13.69,0,111.2,13.11,26.97,195.1
"2010-09-10 00:19:30",147220,4.665,229.4,5.848,0.323,22.35,110.4775,26.12,26.96,13.76,0,111.2,13.11,26.96,191.4
"2010-09-10 00:20:00",147221,4.094,234.7,2.064,0.132,22.35,110.4756,26.12,26.96,13.82,0,111.2,13.12,26.96,196.7
"2010-09-10 00:20:30",147222,3.992,235.1,4.374,0.215,22.32,110.4744,26.11,26.96,13.87,0,111.2,13.12,26.96,197.1
"2010-09-10 00:21:00",147223,2.807,247,19.28,0.846,22.33,110.4683,26.1,26.94,14.27,0,111.2,13.12,26.94,209.0
"2010-09-10 00:21:30",147224,2.308,297.7,7.047,0.273,22.28,110.4491,26.05,26.94,14.32,0,111.2,13.11,26.89,259.7
"2010-09-10 00:22:00",147225,1.518,279.4,17.02,0.31,22.27,110.4459,26.04,26.93,14.3,0,111.2,13.11,26.88,241.4
"2010-09-10 00:22:30",147226,2.211,211.2,26.31,0.478,22.22,110.4363,26.02,26.92,14.38,0,111.2,13.11,26.86,173.2
"2010-09-10 00:23:00",147227,2.53,194.8,8.52,0.445,22.21,110.4354,26.01,26.92,14.34,0,111.2,13.11,26.86,156.8
"2010-09-10 00:23:30",147228,3.493,192.6,5.071,0.331,22.23,110.4354,26.01,26.9,14.3,0,111.2,13.11,26.86,154.6
"2010-09-10 00:24:00",147229,3.25,163.6,10.91,0.84,22.25,110.4354,26.01,26.9,14.47,0,111.2,13.11,26.86,125.6
"2010-09-10 00:24:30",147230,0.639,163.4,17.54,0.48,22.22,110.4342,26.01,26.88,14.75,0,111.2,13.11,26.85,125.4
"2010-09-10 00:25:00",147231,0.461,149.4,35.84,0.539,22.17,110.4333,26.01,26.88,14.78,0,111.2,13.11,26.85,111.4
"2010-09-10 00:25:30",147232,1.45,164.6,25.94,0.519,22.1,110.4323,26.01,26.89,14.42,0,111.2,13.11,26.85,126.6
"2010-09-10 00:26:00",147233,0.524,160.1,72.39,0.466,22.2,110.4359,26.01,26.89,14.45,0,111.2,13.11,26.86,122.1
"2010-09-10 00:26:30",147234,0.491,156.6,73.69,0.39,22.19,110.4418,26.03,26.89,14.33,0,111.2,13.11,26.87,118.6
"2010-09-10 00:27:00",147235,0.271,247.4,69.82,0.239,22.08,110.4561,26.07,26.9,14.29,0,111.2,13.11,26.91,209.4
"2010-09-10 00:27:30",147236,0.898,339.5,18.36,0.506,22.07,110.4539,26.06,26.9,14.6,0,111.2,13.11,26.90,301.5
"2010-09-10 00:28:00",147237,2.841,348.4,7.631,0.617,22.12,110.4482,26.05,26.9,15.61,0,111.2,13.11,26.89,310.4
"2010-09-10 00:28:30",147238,3.892,352.4,13.95,0.555,22.12,110.4474,26.04,26.9,14.76,0,111.2,13.11,26.89,314.4
"2010-09-10 00:29:00",147239,2.206,8.52,10.93,0.215,22.19,110.4456,26.04,26.9,14.8,0,111.2,13.11,26.88,330.5
"2010-09-10 00:29:30",147240,1.949,353.7,6.887,0.488,22.32,110.4496,26.05,26.92,15.23,0,111.2,13.1,26.89,315.7
"2010-09-10 00:30:00",147241,2.182,346.4,4.801,0.342,22.1,110.4488,26.05,26.93,15.2,0,111.2,13.11,26.89,308.4
"2010-09-10 00:30:30",147242,2.819,359.4,7.931,0.233,22.14,110.4428,26.03,26.92,15.29,0,111.2,13.1,26.88,321.4
"2010-09-10 00:31:00",147243,2.42,345.7,4.389,0.15,22.22,110.4427,26.03,26.93,14.69,0,111.2,13.1,26.87,307.7
"2010-09-10 00:31:30",147244,2.301,342.7,3.069,0.132,22.26,110.4431,26.03,26.93,14.5,0,111.2,13.1,26.88,304.7
"2010-09-10 00:32:00",147245,2.356,354.3,2.92,0.412,22.43,110.4463,26.04,26.92,14.71,0,111.2,13.1,26.88,316.3
"2010-09-10 00:32:30",147246,2.38,355.3,3.379,0.319,22.44,110.4635,26.09,26.95,14.73,0,111.2,13.1,26.93,317.3
"2010-09-10 00:33:00",147247,2.759,354,4.812,0.462,22.35,110.4749,26.11,26.98,14.73,0,111.2,13.1,26.96,316.0
"2010-09-10 00:33:30",147248,2.774,351.2,7.15,0.512,22.32,110.4749,26.11,26.98,14.67,0,111.2,13.1,26.96,313.2
"2010-09-10 00:34:00",147249,2.933,353.8,4.936,0.395,22.34,110.4749,26.11,26.97,14.46,0,111.2,13.1,26.96,315.8
"2010-09-10 00:34:30",147250,2.932,359.8,8.72,0.579,22.4,110.4752,26.12,26.99,14.51,0,111.2,13.1,26.96,321.8
"2010-09-10 00:35:00",147251,2.631,4.931,6.094,0.878,22.42,110.4901,26.15,26.99,14.74,0,111.2,13.11,27.00,326.9
"2010-09-10 00:35:30",147252,2.421,0.039,10.89,1.085,22.41,110.5077,26.2,27.03,15.04,0,111.2,13.11,27.04,322.0
"2010-09-10 00:36:00",147253,3.613,351.5,2.916,0.491,22.47,110.5021,26.18,27.02,14.36,0,111.2,13.11,27.03,313.5
"2010-09-10 00:36:30",147254,3.242,355.6,4.02,0.446,22.46,110.5002,26.18,27.02,14.36,0,111.2,13.11,27.02,317.6
"2010-09-10 00:37:00",147255,3.192,353.7,3.285,0.505,22.53,110.5061,26.2,27.03,14.54,0,111.2,13.11,27.04,315.7
"2010-09-10 00:37:30",147256,2.165,6.903,4.408,0.481,22.39,110.5077,26.2,27.04,15.13,0,111.2,13.11,27.04,328.9
"2010-09-10 00:38:00",147257,2.473,4.66,6.751,0.732,22.37,110.5083,26.2,27.05,15.75,0,111.2,13.11,27.04,326.7
"2010-09-10 00:38:30",147258,2.332,7.752,2.547,0.374,22.36,110.5061,26.2,27.04,15.36,0,111.2,13.11,27.04,329.8
"2010-09-10 00:39:00",147259,2.797,8.85,2.811,0.317,22.31,110.5063,26.2,27.04,15.59,0,111.2,13.11,27.04,330.9
"2010-09-10 00:39:30",147260,3.331,9.36,3.171,0.28,22.23,110.4884,26.15,27.03,16.17,0,111.3,13.11,26.99,331.4
"2010-09-10 00:40:00",147261,3.596,6.803,3.125,0.313,22.26,110.4749,26.11,27.01,16.78,0,111.3,13.11,26.96,328.8
"2010-09-10 00:40:30",147262,5.367,358.2,5.656,1.932,22.21,110.448,26.05,26.97,17.36,0,111.3,13.11,26.89,320.2
"2010-09-10 00:41:00",147263,6.782,353.8,5.008,1.795,22.24,110.4182,25.97,26.92,17.93,0,111.3,13.11,26.81,315.8
"2010-09-10 00:41:30",147264,9.08,346,4.019,1.058,22.26,110.3812,25.87,26.86,17.48,0,111.2,13.11,26.72,308.0
"2010-09-10 00:42:00",147265,9.76,337.8,5.155,0.715,22.03,110.3517,25.8,26.81,17.87,0,111.3,13.11,26.64,299.8
"2010-09-10 00:42:30",147266,9.41,326.3,2.555,0.576,22,110.3211,25.72,26.74,17.6,0,111.3,13.11,26.56,288.3
"2010-09-10 00:43:00",147267,9.38,325.9,3.117,0.374,21.88,110.2835,25.62,26.67,17.5,0,111.3,13.11,26.46,287.9
"2010-09-10 00:43:30",147268,10.33,322,4.773,0.492,21.91,110.2492,25.53,26.6,17.51,0,111.3,13.11,26.38,284.0
"2010-09-10 00:44:00",147269,10.14,321.2,1.643,0.567,21.82,110.2195,25.46,26.54,16.88,0,111.3,13.11,26.30,283.2
"2010-09-10 00:44:30",147270,10.19,322.8,3.025,0.542,21.8,110.1914,25.39,26.47,16.52,0,111.3,13.11,26.23,284.8
"2010-09-10 00:45:00",147271,9.71,317.7,5.586,0.314,21.72,110.16,25.31,26.43,16.13,0,111.3,13.11,26.15,279.7
"2010-09-10 00:45:30",147272,10.16,313.2,1.72,0.809,21.74,110.1291,25.23,26.35,15.71,0,111.3,13.11,26.07,275.2
"2010-09-10 00:46:00",147273,11.26,313.2,1.449,0.266,21.72,110.1055,25.17,26.28,14.82,0,111.3,13.11,26.01,275.2
"2010-09-10 00:46:30",147274,10.84,313.7,2.532,0.339,21.88,110.0831,25.11,26.23,15.34,0,111.3,13.1,25.95,275.7
"2010-09-10 00:47:00",147275,10.28,316.8,3.352,0.709,21.85,110.071,25.08,26.17,15.43,0,111.2,13.1,25.92,278.8
"2010-09-10 00:47:30",147276,10.64,321.7,2.992,0.301,21.74,110.0575,25.04,26.11,15.21,0,111.2,13.1,25.88,283.7
"2010-09-10 00:48:00",147277,11.31,321,2.856,0.569,21.68,110.0373,24.99,26.08,14.99,0,111.2,13.1,25.83,283.0
"2010-09-10 00:48:30",147278,11.44,323.1,1.354,0.184,21.7,110.0244,24.96,26.02,14.31,0,111.2,13.1,25.80,285.1
"2010-09-10 00:49:00",147279,11.46,324.3,1.456,0.203,21.7,110.0048,24.91,25.98,14.23,0,111.2,13.1,25.75,286.3
"2010-09-10 00:49:30",147280,11.59,322.7,1.341,0.145,21.66,109.9975,24.89,25.94,14.37,0,111.2,13.1,25.73,284.7
"2010-09-10 00:50:00",147281,11.5,321.8,1.633,0.22,21.62,109.9714,24.82,25.9,14.42,0,111.2,13.1,25.66,283.8
"2010-09-10 00:50:30",147282,11.58,323.6,1.112,0.259,21.67,109.967,24.81,25.86,14.41,0,111.2,13.1,25.65,285.6
"2010-09-10 00:51:00",147283,12.55,321.7,1.451,0.665,21.63,109.9434,24.75,25.83,14.29,0,111.2,13.1,25.59,283.7
"2010-09-10 00:51:30",147284,12.47,320.5,1.782,0.63,21.56,109.9375,24.73,25.79,14.18,0,111.2,13.11,25.57,282.5
"2010-09-10 00:52:00",147285,12.66,318.7,3.286,0.505,21.54,109.9156,24.68,25.75,14.21,0,111.2,13.11,25.52,280.7
"2010-09-10 00:52:30",147286,12.26,318.1,3.031,0.69,21.48,109.9032,24.65,25.71,14.18,0,111.2,13.11,25.48,280.1
"2010-09-10 00:53:00",147287,11.47,315.3,3.305,0.669,21.45,109.8797,24.59,25.67,14.44,0,111.2,13.11,25.42,277.3
"2010-09-10 00:53:30",147288,12.16,319.6,3.966,0.639,21.44,109.8664,24.55,25.62,14.53,0,111.2,13.11,25.39,281.6
"2010-09-10 00:54:00",147289,12.8,317.7,1.928,1.059,21.45,109.843,24.49,25.58,14.33,0,111.2,13.11,25.33,279.7
"2010-09-10 00:54:30",147290,12.39,318.4,2.595,0.664,21.41,109.8376,24.48,25.53,14.41,0,111.2,13.11,25.31,280.4
"2010-09-10 00:55:00",147291,12.59,316,4.428,0.879,21.45,109.8121,24.41,25.5,14.18,0,111.2,13.11,25.25,278.0
"2010-09-10 00:55:30",147292,13.44,316.9,1.954,0.415,21.45,109.8086,24.4,25.46,14.13,0,111.2,13.11,25.24,278.9
"2010-09-10 00:56:00",147293,13.37,316.9,1.909,0.75,21.48,109.789,24.35,25.42,14.11,0,111.2,13.11,25.19,278.9
"2010-09-10 00:56:30",147294,12.58,318.3,2.05,0.757,21.36,109.7876,24.35,25.38,14.23,0,111.2,13.11,25.19,280.3
"2010-09-10 00:57:00",147295,13.67,318.9,2.73,0.646,21.4,109.7721,24.31,25.32,14.05,0,111.2,13.11,25.15,280.9
"2010-09-10 00:57:30",147296,14.04,317.9,1.395,0.389,21.44,109.7591,24.28,25.3,13.99,0,111.2,13.11,25.11,279.9
"2010-09-10 00:58:00",147297,14.15,316.9,1.377,0.418,21.37,109.7598,24.28,25.27,14.02,0,111.2,13.11,25.11,278.9
"2010-09-10 00:58:30",147298,14.54,317.6,1.049,0.363,21.39,109.7467,24.24,25.24,13.97,0,111.2,13.11,25.08,279.6
"2010-09-10 00:59:00",147299,14.78,316.6,0.714,0.14,21.44,109.7307,24.2,25.21,13.81,0,111.2,13.12,25.04,278.6
"2010-09-10 00:59:30",147300,14.45,315.6,0.925,0.179,21.54,109.7279,24.2,25.19,13.78,0,111.2,13.11,25.03,277.6
"2010-09-10 01:00:00",147301,13.96,317.9,0.489,0.218,21.52,109.7279,24.2,25.15,13.84,0,111.2,13.12,25.03,279.9
"2010-09-10 01:00:30",147302,14.22,318.4,1.148,0.148,21.47,109.7298,24.2,25.14,13.89,0,111.2,13.12,25.04,280.4
"2010-09-10 01:01:00",147303,14.16,318.8,1.054,0.259,21.5,109.7299,24.2,25.12,13.86,0,111.2,13.12,25.04,280.8
"2010-09-10 01:01:30",147304,14.09,319.1,0.621,0.389,21.57,109.7282,24.2,25.12,13.8,0,111.2,13.12,25.03,281.1
"2010-09-10 01:02:00",147305,13.99,317.2,0.778,0.375,21.52,109.7321,24.21,25.09,13.84,0,111.2,13.12,25.04,279.2
"2010-09-10 01:02:30",147306,14.94,317.1,1.085,0.231,21.39,109.7186,24.17,25.09,13.75,0,111.2,13.12,25.01,279.1
"2010-09-10 01:03:00",147307,15.12,316,1.096,0.238,21.45,109.7082,24.14,25.08,13.71,0,111.2,13.12,24.98,278.0
"2010-09-10 01:03:30",147308,14.91,315.7,1.176,0.176,21.5,109.7046,24.14,25.08,13.64,0,111.2,13.11,24.97,277.7
"2010-09-10 01:04:00",147309,14.87,317,1.129,0.211,21.52,109.7035,24.13,25.08,13.65,0,111.2,13.11,24.97,279.0
"2010-09-10 01:04:30",147310,15.23,317.1,1.275,0.315,21.36,109.7035,24.13,25.07,13.63,0,111.2,13.11,24.97,279.1
"2010-09-10 01:05:00",147311,15.04,317.6,0.85,0.163,21.38,109.6984,24.12,25.04,13.63,0,111.2,13.11,24.96,279.6
"2010-09-10 01:05:30",147312,14.94,320,1.048,0.246,21.47,109.6788,24.07,25.02,13.58,0,111.2,13.11,24.91,282.0
"2010-09-10 01:06:00",147313,15.3,318.2,0.969,0.199,21.34,109.6712,24.05,25,13.55,0,111.2,13.11,24.89,280.2
"2010-09-10 01:06:30",147314,15.04,318.2,0.639,0.108,21.52,109.6698,24.05,24.99,13.5,0,111.2,13.11,24.88,280.2
"2010-09-10 01:07:00",147315,14.62,319.7,0.876,0.229,21.51,109.6614,24.02,24.96,13.53,0,111.1,13.11,24.86,281.7
"2010-09-10 01:07:30",147316,14.31,319.9,0.526,0.202,21.53,109.6451,23.98,24.96,13.55,0,111.1,13.11,24.82,281.9
"2010-09-10 01:08:00",147317,14.15,320.2,0.79,0.249,21.52,109.6367,23.96,24.93,13.55,0,111.1,13.11,24.80,282.2
"2010-09-10 01:08:30",147318,14.68,321.5,0.651,0.267,21.4,109.6361,23.96,24.91,13.53,0,111.1,13.12,24.80,283.5
"2010-09-10 01:09:00",147319,14.77,321.9,0.541,0.17,21.32,109.6294,23.94,24.91,13.51,0,111.1,13.12,24.78,283.9
"2010-09-10 01:09:30",147320,14.95,321.5,0.634,0.224,21.28,109.6092,23.89,24.88,13.49,0,111.1,13.12,24.73,283.5
"2010-09-10 01:10:00",147321,14.89,321.5,1.401,0.262,21.32,109.6024,23.87,24.86,13.47,0,111.1,13.12,24.71,283.5
"2010-09-10 01:10:30",147322,14.9,322.1,1.197,0.313,21.26,109.5808,23.82,24.83,13.46,0,111.1,13.12,24.65,284.1
"2010-09-10 01:11:00",147323,14.95,321.2,0.568,0.18,21.3,109.5693,23.79,24.78,13.42,0,111.1,13.12,24.62,283.2
"2010-09-10 01:11:30",147324,15.06,321.8,1.089,0.24,21.38,109.5712,23.79,24.78,13.4,0,111.1,13.12,24.63,283.8
"2010-09-10 01:12:00",147325,14.52,320.7,0.827,0.186,21.47,109.558,23.76,24.76,13.45,0,111.1,13.13,24.59,282.7
"2010-09-10 01:12:30",147326,14.8,322.2,1.356,0.251,21.35,109.5551,23.75,24.73,13.42,0,111.1,13.13,24.59,284.2
"2010-09-10 01:13:00",147327,14.83,322.6,1.021,0.213,21.38,109.5609,23.77,24.7,13.43,0,111.1,13.13,24.60,284.6
"2010-09-10 01:13:30",147328,14.87,323.2,0.856,0.181,21.22,109.5595,23.76,24.69,13.32,0,111.1,13.13,24.60,285.2
"2010-09-10 01:14:00",147329,14.75,325.1,0.616,0.142,21.29,109.5383,23.71,24.67,13.32,0,111.1,13.13,24.54,287.1
"2010-09-10 01:14:30",147330,14.97,324.8,0.705,0.145,21.21,109.5296,23.69,24.64,13.33,0,111.1,13.13,24.52,286.8
"2010-09-10 01:15:00",147331,14.91,325.4,0.991,0.141,21.22,109.5274,23.68,24.64,13.39,0,111.1,13.13,24.51,287.4
"2010-09-10 01:15:30",147332,14.6,327.2,0.932,0.197,21.21,109.5092,23.63,24.6,13.49,0,111.1,13.13,24.47,289.2
"2010-09-10 01:16:00",147333,14.71,325.2,1.132,0.209,21.2,109.4975,23.6,24.58,13.36,0,111.1,13.13,24.44,287.2
"2010-09-10 01:16:30",147334,15.12,325.7,1.318,0.235,21.1,109.4967,23.6,24.55,13.38,0,111.1,13.14,24.44,287.7
"2010-09-10 01:17:00",147335,14.67,322.4,1.089,0.155,21.17,109.4741,23.54,24.52,13.31,0,111.1,13.14,24.38,284.4
"2010-09-10 01:17:30",147336,14.56,322.5,1.235,0.27,21.1,109.4708,23.54,24.5,13.28,0,111.1,13.14,24.37,284.5
"2010-09-10 01:18:00",147337,14.56,324.6,1.214,0.347,21.07,109.4604,23.51,24.47,13.19,0,111.1,13.14,24.34,286.6
"2010-09-10 01:18:30",147338,15.12,324.9,0.926,0.261,21.04,109.4405,23.46,24.44,13.18,0,111.1,13.14,24.29,286.9
"2010-09-10 01:19:00",147339,14.64,323.5,1.043,0.282,21.02,109.4371,23.45,24.42,13.22,0,111.1,13.14,24.28,285.5
"2010-09-10 01:19:30",147340,14.21,323,0.795,0.134,21,109.4186,23.4,24.39,13.27,0,111.1,13.14,24.23,285.0
"2010-09-10 01:20:00",147341,14.65,324.1,1.347,0.177,21.01,109.4034,23.36,24.37,13.21,0,111.1,13.14,24.20,286.1
"2010-09-10 01:20:30",147342,14.47,323.6,1.086,0.209,20.97,109.4015,23.36,24.33,13.25,0,111.1,13.14,24.19,285.6
"2010-09-10 01:21:00",147343,13.96,323.1,1.095,0.182,21.04,109.3779,23.3,24.3,13.21,0,111.1,13.13,24.13,285.1
"2010-09-10 01:21:30",147344,13.83,324.5,0.806,0.167,20.96,109.3697,23.28,24.28,13.31,0,111.1,13.14,24.11,286.5
"2010-09-10 01:22:00",147345,13.88,324.9,0.88,0.416,21,109.3582,23.25,24.24,13.26,0,111.1,13.13,24.08,286.9
"2010-09-10 01:22:30",147346,14.07,324.4,0.637,0.143,20.98,109.3405,23.2,24.23,13.19,0,111.1,13.13,24.03,286.4
"2010-09-10 01:23:00",147347,13.96,324.2,1.264,0.206,21.01,109.336,23.19,24.19,13.2,0,111.1,13.13,24.02,286.2
"2010-09-10 01:23:30",147348,14.03,325.3,1.628,0.197,20.96,109.3368,23.19,24.17,13.21,0,111.1,13.13,24.02,287.3
"2010-09-10 01:24:00",147349,13.51,323.7,1.212,0.301,20.9,109.3181,23.14,24.14,13.27,0,111.1,13.13,23.98,285.7
"2010-09-10 01:24:30",147350,13.94,324.7,1.193,0.219,20.92,109.3115,23.13,24.12,13.27,0,111,13.13,23.96,286.7
"2010-09-10 01:25:00",147351,13.33,327.7,1.418,0.361,20.95,109.3153,23.14,24.11,13.36,0,111,13.14,23.97,289.7
"2010-09-10 01:25:30",147352,13.33,327.3,1.087,0.405,20.94,109.2995,23.1,24.07,13.28,0,111,13.14,23.93,289.3
"2010-09-10 01:26:00",147353,13.61,326.6,1.312,0.424,20.91,109.2947,23.08,24.05,13.34,0,111,13.14,23.92,288.6
"2010-09-10 01:26:30",147354,13.18,325.6,1.277,0.215,20.87,109.2954,23.08,24.02,13.35,0,111,13.14,23.92,287.6
"2010-09-10 01:27:00",147355,13.19,326.2,1.243,0.227,20.88,109.2856,23.06,24,13.33,0,111,13.14,23.89,288.2
"2010-09-10 01:27:30",147356,13.31,326.5,1.427,0.455,20.9,109.2671,23.01,23.98,13.3,0,111,13.15,23.84,288.5
"2010-09-10 01:28:00",147357,13.28,326.7,0.859,0.245,20.84,109.2641,23,23.97,13.35,0,111,13.15,23.84,288.7
"2010-09-10 01:28:30",147358,12.61,328.3,1.249,0.213,20.8,109.2592,22.99,23.94,13.45,0,111,13.15,23.82,290.3
"2010-09-10 01:29:00",147359,12.19,326.4,1.891,0.319,20.81,109.2418,22.95,23.91,13.42,0,111,13.15,23.78,288.4
"2010-09-10 01:29:30",147360,12.31,327.6,1.813,0.288,20.8,109.2377,22.94,23.88,13.46,0,111,13.15,23.77,289.6
"2010-09-10 01:30:00",147361,12.65,325.6,1.397,0.576,20.89,109.2341,22.93,23.87,13.41,0,111,13.15,23.76,287.6
"2010-09-10 01:30:30",147362,13.18,325.2,1.296,0.477,20.85,109.2161,22.88,23.83,13.35,0,111,13.15,23.71,287.2
"2010-09-10 01:31:00",147363,12.57,327.3,1.08,0.205,20.84,109.2077,22.86,23.8,13.37,0,111,13.15,23.69,289.3
"2010-09-10 01:31:30",147364,12.82,326.4,1.169,0.431,20.87,109.2043,22.85,23.8,13.32,0,111,13.15,23.68,288.4
"2010-09-10 01:32:00",147365,12.66,328.8,1.283,0.187,20.85,109.2043,22.85,23.79,13.31,0,111,13.15,23.68,290.8
"2010-09-10 01:32:30",147366,13.27,327.5,0.963,0.245,20.84,109.2043,22.85,23.78,13.28,0,111,13.15,23.68,289.5
"2010-09-10 01:33:00",147367,13.18,324.5,1.495,0.24,20.82,109.2043,22.85,23.77,13.31,0,111,13.15,23.68,286.5
"2010-09-10 01:33:30",147368,12.96,323.6,1.832,0.271,20.81,109.1953,22.83,23.75,13.3,0,111,13.15,23.66,285.6
"2010-09-10 01:34:00",147369,12.41,324.2,1.296,0.189,20.76,109.1785,22.78,23.74,13.35,0,111,13.15,23.62,286.2
"2010-09-10 01:34:30",147370,12.65,326.1,1.013,0.267,20.87,109.1731,22.77,23.73,13.31,0,111,13.15,23.60,288.1
"2010-09-10 01:35:00",147371,12.08,328.5,0.911,0.383,20.76,109.173,22.77,23.72,13.34,0,111,13.15,23.60,290.5
"2010-09-10 01:35:30",147372,12.34,327.1,1.516,0.289,20.74,109.173,22.77,23.72,13.36,0,111,13.15,23.60,289.1
"2010-09-10 01:36:00",147373,12.84,326.5,1.93,0.262,20.86,109.174,22.77,23.7,13.29,0,111,13.15,23.60,288.5
"2010-09-10 01:36:30",147374,12.68,327.4,0.535,0.245,20.74,109.1653,22.75,23.69,13.33,0,111,13.15,23.58,289.4
"2010-09-10 01:37:00",147375,12.47,327.5,0.953,0.199,20.78,109.1579,22.73,23.68,13.31,0,111,13.15,23.56,289.5
"2010-09-10 01:37:30",147376,12.74,328.3,1.057,0.208,20.73,109.1548,22.72,23.67,13.28,0,111,13.15,23.55,290.3
"2010-09-10 01:38:00",147377,12.37,329.4,1.237,0.352,20.68,109.1517,22.72,23.66,13.29,0,111,13.15,23.55,291.4
"2010-09-10 01:38:30",147378,12.55,328.7,1.32,0.236,20.72,109.1531,22.72,23.64,13.29,0,111,13.15,23.55,290.7
"2010-09-10 01:39:00",147379,12.3,328.7,1.751,0.315,20.65,109.1549,22.72,23.62,13.38,0,111,13.15,23.56,290.7
"2010-09-10 01:39:30",147380,12.21,329.5,1.366,0.24,20.6,109.1367,22.68,23.61,13.4,0,111,13.15,23.51,291.5
"2010-09-10 01:40:00",147381,12.17,326.3,1.736,0.432,20.66,109.1298,22.66,23.6,13.4,0,111,13.15,23.49,288.3
"2010-09-10 01:40:30",147382,12.77,325,1.933,0.346,20.75,109.1308,22.66,23.57,13.36,0,111,13.15,23.49,287.0
"2010-09-10 01:41:00",147383,12.44,326.9,1.028,0.156,20.71,109.1294,22.66,23.56,13.34,0,110.9,13.15,23.49,288.9
"2010-09-10 01:41:30",147384,12.43,327.5,0.821,0.128,20.75,109.1257,22.65,23.55,13.28,0,110.9,13.15,23.48,289.5
"2010-09-10 01:42:00",147385,12.57,327.4,0.808,0.284,20.76,109.1275,22.65,23.54,13.25,0,110.9,13.15,23.48,289.4
"2010-09-10 01:42:30",147386,12.96,328,0.734,0.195,20.69,109.1265,22.65,23.53,13.26,0,110.9,13.15,23.48,290.0
"2010-09-10 01:43:00",147387,12.62,327.5,0.742,0.299,20.81,109.1285,22.66,23.53,13.24,0,110.9,13.15,23.49,289.5
"2010-09-10 01:43:30",147388,12.33,328.5,0.664,0.198,20.76,109.132,22.67,23.53,13.24,0,110.9,13.15,23.50,290.5
"2010-09-10 01:44:00",147389,12.4,329.6,1.132,0.238,20.64,109.1314,22.66,23.53,13.26,0,110.9,13.16,23.49,291.6
"2010-09-10 01:44:30",147390,11.96,328.5,1.186,0.305,20.66,109.1196,22.63,23.52,13.27,0,110.9,13.16,23.46,290.5
"2010-09-10 01:45:00",147391,11.45,327.8,1.203,0.305,20.71,109.109,22.61,23.5,13.32,0,110.9,13.16,23.44,289.8
"2010-09-10 01:45:30",147392,11.69,326.8,1.589,0.268,20.6,109.1062,22.6,23.5,13.36,0,110.9,13.16,23.43,288.8
"2010-09-10 01:46:00",147393,11.77,325.1,3.223,0.213,20.65,109.1062,22.6,23.49,13.36,0,110.9,13.16,23.43,287.1
"2010-09-10 01:46:30",147394,11.75,326.1,2.05,0.569,20.59,109.1012,22.59,23.48,13.36,0,110.9,13.16,23.42,288.1
"2010-09-10 01:47:00",147395,11.27,327.7,0.987,0.392,20.57,109.0829,22.54,23.47,13.41,0,110.9,13.17,23.37,289.7
"2010-09-10 01:47:30",147396,11.12,327.1,1.395,0.387,20.57,109.0725,22.51,23.45,13.44,0,110.9,13.17,23.34,289.1
"2010-09-10 01:48:00",147397,11.02,325.4,2.275,0.454,20.58,109.0717,22.51,23.43,13.46,0,110.9,13.17,23.34,287.4